Location: Ozark
(37.5425°N, 88.7628°W)
Time: 20:49:16
(UTC+00:00)

CZ-4C R/B - Pass Details

Date: 26 January 2020
Orbit: 644 x 1358 km, 63.4° (Epoch: 22 February)

Event Time Altitude Azimuth Distance (km) Brightness Sun altitude
Rises 23:31:27 0° 322° (NW) 3,979 5.9 -4.4°
Reaches altitude 10° 23:34:06 10° 317° (NW) 3,106 5.5 -4.9°
Maximum altitude 23:41:24 51° 245° (WSW) 1,583 4.2 -6.3°
Drops below altitude 10° 23:49:26 10° 172° (S) 3,393 5.5 -7.8°
Sets 23:52:27 0° 168° (SSE) 4,372 6.0 -8.4°
